User: anonymous   Login
Location: Unspecified
(0.0000°N, 0.0000°E)
Time: 00:44:19
(UTC+00:00)
Language:

Intelsat II F-2 - Orbit

View from above orbital plane
View from above orbital plane
View from above satellite
View from above satellite

Ground track
Ground track

The orbit data is extracted from the following two-line orbital elements,

1  2639U 67001A   18265.59062718 -.00000066 +00000-0 +00000-0 0  9997
2  2639 003.7083 294.6893 0012145 300.2376 145.9135 01.00280811090927
Epoch (UTC): 22 September 2018 14:10:30
Eccentricity: 0.0012145
inclination: 3.7083°
perigee height: 35732 km
apogee height: 35835 km
right ascension of ascending node: 294.6893°
argument of perigee: 300.2376°
revolutions per day: 1.00280811
mean anomaly at epoch: 145.9135°
orbit number at epoch: 9092

The dashed part of the orbit path shows where the satellite is in the earth's shadow,  

DLR